Overview Statistics Trail Chart Weather Telemetry Raw packets
 

This is the latest recevied weather packets stored in our database for station/object IW1PPB-3. If no packets are shown the sender has not sent any weather packets the latest 10 day(s).

<< 48 49 50 51 52 53 54 >>
Time Temp. Humidity Pressure Rain* Wind** Luminosity Snow
1787823229 29.44° C 60% 1016.3 hPa 0 mm - - -
1787822616 29.44° C 61% 1016.2 hPa 0 mm - - -
1787822005 29.44° C 60% 1016.2 hPa 0 mm - - -
1787821420 29.44° C 60% 1016.2 hPa 0 mm - - -
1787820819 29.44° C 58% 1016 hPa 0 mm - - -
1787820214 29.44° C 60% 1015.9 hPa 0 mm - - -
1787819605 29.44° C 63% 1015.7 hPa 0 mm - - -
1787819033 28.89° C 66% 1015.7 hPa 0 mm - - -
1787818402 28.89° C 67% 1015.6 hPa 0 mm - - -
1787817806 28.89° C 66% 1015.7 hPa 0 mm - - -
1787817223 28.33° C 65% 1015.4 hPa 0 mm - - -
1787816612 28.33° C 66% 1015.5 hPa 0 mm - - -
1787816004 28.33° C 66% 1015.6 hPa 0 mm - - -
1787815417 27.78° C 67% 1015.6 hPa 0 mm - - -
1787814809 27.78° C 69% 1015.7 hPa 0 mm - - -
1787814202 27.22° C 70% 1015.9 hPa 0 mm - - -
1787813617 27.22° C 66% 1015.9 hPa 0 mm - - -
1787813007 27.22° C 67% 1016 hPa 0 mm - - -
1787812422 27.22° C 64% 1015.9 hPa 0 mm - - -
1787811814 26.67° C 65% 1015.6 hPa 0 mm - - -
1787811203 26.67° C 68% 1015.6 hPa 0 mm - - -
1787810623 26.11° C 68% 1015.5 hPa 0 mm - - -
1787810010 26.11° C 69% 1015.4 hPa 0 mm - - -
1787809402 25.56° C 70% 1015.4 hPa 0 mm - - -
1787808818 25.56° C 71% 1015.4 hPa 0 mm - - -

* Rain latest hour (hover to see other rain measurements)
** Current wind speed in m/s (hover to see current wind gust speed)